"Sample Date","Sample Time","Sample Value","Units","Flow Rate","Sample Interval","Number Channels","Micron Size 0","Counts/Channel 0","Micron Size 1","Counts/Channel 1","Micron Size 2","Counts/Channel 2","Micron Size 3","Counts/Channel 3","Micron Size 4","Counts/Channel 4","Micron Size 5","Counts/Channel 5","Micron Size 6","Counts/Channel 6","Micron Size 7","Counts/Channel 7","Micron Size 8","Counts/Channel 8","Micron Size 9","Counts/Channel 9","Micron Size 10","Counts/Channel 10","Micron Size 11","Counts/Channel 11","Micron Size 12","Counts/Channel 12","Micron Size 13","Counts/Channel 13","Micron Size 14","Counts/Channel 14","Micron Size 15","Counts/Channel 15","Micron Size 16","Counts/Channel 16","Micron Size 17","Counts/Channel 17","Micron Size 18","Counts/Channel 18","Micron Size 19","Counts/Channel 19","Micron Size 20","Counts/Channel 20","Micron Size 21","Counts/Channel 21","Micron Size 22","Counts/Channel 22","Micron Size 23","Counts/Channel 23","Micron Size 24","Counts/Channel 24","Micron Size 25","Counts/Channel 25","Micron Size 26","Counts/Channel 26","Micron Size 27","Counts/Channel 27","Micron Size 28","Counts/Channel 28","Micron Size 29","Counts/Channel 29","Micron Size 30","Counts/Channel 30","Micron Size 31","Counts/Channel 31"
"03/11/08","15:00:00",22983.000,"cc",28304.926,6.00,6,0.100,14638.000,0.200,2558.000,0.300,2121.000,0.500,2638.000,1.000,1028.000,5.000,0
"03/11/08","15:00:06",22762.000,"cc",28275.818,6.00,6,0.100,14533.000,0.200,2547.000,0.300,2116.000,0.500,2568.000,1.000,998.000,5.000,0
"03/11/08","15:00:12",23297.000,"cc",28336.059,6.00,6,0.100,14855.000,0.200,2504.000,0.300,2276.000,0.500,2672.000,1.000,990.000,5.000,0
"03/11/08","15:00:18",23062.000,"cc",28394.820,6.00,6,0.100,14742.000,0.200,2478.000,0.300,2257.000,0.500,2603.000,1.000,982.000,5.000,0
"03/11/08","15:00:24",23031.000,"cc",28401.231,6.00,6,0.100,14806.000,0.200,2516.000,0.300,2141.000,0.500,2626.000,1.000,942.000,5.000,0
"03/11/08","15:00:30",23328.000,"cc",28230.428,6.00,6,0.100,14794.000,0.200,2684.000,0.300,2246.000,0.500,2620.000,1.000,984.000,5.000,0
"03/11/08","15:00:36",23166.000,"cc",28303.787,6.00,6,0.100,14654.000,0.200,2601.000,0.300,2226.000,0.500,2688.000,1.000,997.000,5.000,0
"03/11/08","15:00:42",23091.000,"cc",28249.850,6.00,6,0.100,14563.000,0.200,2558.000,0.300,2269.000,0.500,2669.000,1.000,1032.000,5.000,0
"03/11/08","15:00:48",22841.000,"cc",28319.682,6.00,6,0.100,14333.000,0.200,2579.000,0.300,2299.000,0.500,2621.000,1.000,1009.000,5.000,0
"03/11/08","15:00:54",23380.000,"cc",28281.111,6.00,6,0.100,14926.000,0.200,2671.000,0.300,2201.000,0.500,2613.000,1.000,969.000,5.000,0
"03/11/08","15:01:00",23183.000,"cc",28413.277,6.00,6,0.100,14634.000,0.200,2646.000,0.300,2257.000,0.500,2617.000,1.000,1029.000,5.000,0
"03/11/08","15:01:06",22985.000,"cc",28318.695,6.00,6,0.100,14609.000,0.200,2581.000,0.300,2215.000,0.500,2640.000,1.000,940.000,5.000,0
"03/11/08","15:01:12",23265.000,"cc",28305.508,6.00,6,0.100,14603.000,0.200,2712.000,0.300,2229.000,0.500,2659.000,1.000,1062.000,5.000,0
"03/11/08","15:01:18",23381.000,"cc",28307.045,6.00,6,0.100,14787.000,0.200,2678.000,0.300,2263.000,0.500,2629.000,1.000,1023.000,5.000,1.000
"03/11/08","15:01:24",22929.000,"cc",28291.920,6.00,6,0.100,14460.000,0.200,2570.000,0.300,2243.000,0.500,2675.000,1.000,981.000,5.000,0
"03/11/08","15:01:30",23100.000,"cc",28280.766,6.00,6,0.100,14717.000,0.200,2593.000,0.300,2243.000,0.500,2591.000,1.000,956.000,5.000,0
"03/11/08","15:01:36",22946.000,"cc",28297.041,6.00,6,0.100,14584.000,0.200,2555.000,0.300,2137.000,0.500,2686.000,1.000,984.000,5.000,0
"03/11/08","15:01:42",23148.000,"cc",28314.932,6.00,6,0.100,14648.000,0.200,2548.000,0.300,2292.000,0.500,2651.000,1.000,1009.000,5.000,0
"03/11/08","15:01:48",22895.000,"cc",28428.295,6.00,6,0.100,14408.000,0.200,2641.000,0.300,2220.000,0.500,2644.000,1.000,982.000,5.000,0
"03/11/08","15:01:54",22578.000,"cc",28240.049,6.00,6,0.100,14128.000,0.200,2620.000,0.300,2210.000,0.500,2634.000,1.000,986.000,5.000,0
"03/11/08","15:02:00",22871.000,"cc",28322.174,6.00,6,0.100,14468.000,0.200,2626.000,0.300,2164.000,0.500,2672.000,1.000,941.000,5.000,0
"03/11/08","15:02:06",22964.000,"cc",28342.244,6.00,6,0.100,14587.000,0.200,2537.000,0.300,2238.000,0.500,2596.000,1.000,1006.000,5.000,0
"03/11/08","15:02:12",23204.000,"cc",28353.100,6.00,6,0.100,14696.000,0.200,2645.000,0.300,2259.000,0.500,2600.000,1.000,1004.000,5.000,0
"03/11/08","15:02:18",23122.000,"cc",28233.393,6.00,6,0.100,14752.000,0.200,2566.000,0.300,2206.000,0.500,2601.000,1.000,997.000,5.000,0
"03/11/08","15:02:24",23122.000,"cc",28244.811,6.00,6,0.100,14704.000,0.200,2626.000,0.300,2194.000,0.500,2588.000,1.000,1010.000,5.000,0
"03/11/08","15:02:30",23404.000,"cc",28341.680,6.00,6,0.100,14618.000,0.200,2634.000,0.300,2269.000,0.500,2748.000,1.000,1135.000,5.000,0
"03/11/08","15:02:36",23157.000,"cc",28310.691,6.00,6,0.100,14639.000,0.200,2702.000,0.300,2211.000,0.500,2570.000,1.000,1035.000,5.000,0
"03/11/08","15:02:42",23116.000,"cc",28255.990,6.00,6,0.100,14606.000,0.200,2603.000,0.300,2221.000,0.500,2718.000,1.000,968.000,5.000,0
"03/11/08","15:02:48",22913.000,"cc",28232.129,6.00,6,0.100,14522.000,0.200,2567.000,0.300,2197.000,0.500,2643.000,1.000,984.000,5.000,0
"03/11/08","15:02:54",23136.000,"cc",28337.832,6.00,6,0.100,14505.000,0.200,2711.000,0.300,2291.000,0.500,2645.000,1.000,984.000,5.000,0
"03/11/08","15:03:00",23033.000,"cc",28343.959,6.00,6,0.100,14598.000,0.200,2618.000,0.300,2225.000,0.500,2644.000,1.000,948.000,5.000,0
"03/11/08","15:03:06",22633.000,"cc",28289.316,6.00,6,0.100,14450.000,0.200,2546.000,0.300,2116.000,0.500,2557.000,1.000,964.000,5.000,0
"03/11/08","15:03:12",22859.000,"cc",28294.783,6.00,6,0.100,14553.000,0.200,2685.000,0.300,2150.000,0.500,2505.000,1.000,966.000,5.000,0
"03/11/08","15:03:18",22856.000,"cc",28305.963,6.00,6,0.100,14534.000,0.200,2585.000,0.300,2116.000,0.500,2655.000,1.000,966.000,5.000,0
"03/11/08","15:03:24",23080.000,"cc",28401.090,6.00,6,0.100,14559.000,0.200,2692.000,0.300,2192.000,0.500,2673.000,1.000,964.000,5.000,0
"03/11/08","15:03:30",22766.000,"cc",28351.678,6.00,6,0.100,14477.000,0.200,2591.000,0.300,2170.000,0.500,2583.000,1.000,945.000,5.000,0
"03/11/08","15:03:36",23147.000,"cc",28284.111,6.00,6,0.100,14560.000,0.200,2681.000,0.300,2224.000,0.500,2733.000,1.000,949.000,5.000,0
"03/11/08","15:03:42",23276.000,"cc",28295.184,6.00,6,0.100,14718.000,0.200,2643.000,0.300,2203.000,0.500,2702.000,1.000,1010.000,5.000,0
"03/11/08","15:03:48",23239.000,"cc",28306.514,6.00,6,0.100,14623.000,0.200,2658.000,0.300,2231.000,0.500,2706.000,1.000,1021.000,5.000,0
"03/11/08","15:03:54",23549.000,"cc",28317.133,6.00,6,0.100,14875.000,0.200,2737.000,0.300,2259.000,0.500,2694.000,1.000,984.000,5.000,0
"03/11/08","15:04:00",23316.000,"cc",28301.873,6.00,6,0.100,14512.000,0.200,2801.000,0.300,2265.000,0.500,2740.000,1.000,998.000,5.000,0
"03/11/08","15:04:06",23256.000,"cc",28229.004,6.00,6,0.100,14636.000,0.200,2716.000,0.300,2249.000,0.500,2665.000,1.000,990.000,5.000,0
"03/11/08","15:04:12",23276.000,"cc",28320.389,6.00,6,0.100,14687.000,0.200,2536.000,0.300,2268.000,0.500,2828.000,1.000,957.000,5.000,0
"03/11/08","15:04:18",23421.000,"cc",28384.928,6.00,6,0.100,14790.000,0.200,2664.000,0.300,2281.000,0.500,2721.000,1.000,965.000,5.000,0
"03/11/08","15:04:24",23007.000,"cc",28392.213,6.00,6,0.100,14373.000,0.200,2661.000,0.300,2272.000,0.500,2706.000,1.000,995.000,5.000,0
"03/11/08","15:04:30",22999.000,"cc",28334.197,6.00,6,0.100,14375.000,0.200,2642.000,0.300,2293.000,0.500,2693.000,1.000,996.000,5.000,0
"03/11/08","15:04:36",23026.000,"cc",28339.440,6.00,6,0.100,14575.000,0.200,2591.000,0.300,2223.000,0.500,2618.000,1.000,1019.000,5.000,0
"03/11/08","15:04:42",22942.000,"cc",28281.381,6.00,6,0.100,14407.000,0.200,2685.000,0.300,2313.000,0.500,2565.000,1.000,972.000,5.000,0
"03/11/08","15:04:48",23151.000,"cc",28333.414,6.00,6,0.100,14485.000,0.200,2689.000,0.300,2279.000,0.500,2736.000,1.000,962.000,5.000,0
"03/11/08","15:04:54",23229.000,"cc",28251.072,6.00,6,0.100,14681.000,0.200,2674.000,0.300,2246.000,0.500,2653.000,1.000,975.000,5.000,0
"03/11/08","15:05:00",23023.000,"cc",28294.272,6.00,6,0.100,14441.000,0.200,2700.000,0.300,2201.000,0.500,2702.000,1.000,979.000,5.000,0
"03/11/08","15:05:06",23326.000,"cc",28351.998,6.00,6,0.100,14714.000,0.200,2745.000,0.300,2196.000,0.500,2640.000,1.000,1031.000,5.000,0
"03/11/08","15:05:12",23043.000,"cc",28290.654,6.00,6,0.100,14412.000,0.200,2627.000,0.300,2324.000,0.500,2692.000,1.000,988.000,5.000,0
"03/11/08","15:05:18",23096.000,"cc",28328.221,6.00,6,0.100,14572.000,0.200,2727.000,0.300,2195.000,0.500,2555.000,1.000,1047.000,5.000,0
"03/11/08","15:05:24",23252.000,"cc",28336.332,6.00,6,0.100,14691.000,0.200,2742.000,0.300,2209.000,0.500,2646.000,1.000,964.000,5.000,0
"03/11/08","15:05:30",23269.000,"cc",28319.918,6.00,6,0.100,14658.000,0.200,2762.000,0.300,2234.000,0.500,2628.000,1.000,987.000,5.000,0
"03/11/08","15:05:36",23140.000,"cc",28317.977,6.00,6,0.100,14577.000,0.200,2679.000,0.300,2213.000,0.500,2709.000,1.000,962.000,5.000,0
"03/11/08","15:05:42",23091.000,"cc",28329.635,6.00,6,0.100,14618.000,0.200,2715.000,0.300,2094.000,0.500,2621.000,1.000,1043.000,5.000,0
"03/11/08","15:05:48",22997.000,"cc",28281.533,6.00,6,0.100,14461.000,0.200,2643.000,0.300,2241.000,0.500,2653.000,1.000,999.000,5.000,0
"03/11/08","15:05:54",23260.000,"cc",28342.029,6.00,6,0.100,14678.000,0.200,2696.000,0.300,2217.000,0.500,2686.000,1.000,983.000,5.000,0
"03/11/08","15:06:00",23420.000,"cc",28315.674,6.00,6,0.100,14975.000,0.200,2722.000,0.300,2213.000,0.500,2547.000,1.000,963.000,5.000,0
"03/11/08","15:06:06",23286.000,"cc",28323.160,6.00,6,0.100,14795.000,0.200,2679.000,0.300,2208.000,0.500,2587.000,1.000,1017.000,5.000,0
"03/11/08","15:06:12",23113.000,"cc",28277.406,6.00,6,0.100,14662.000,0.200,2685.000,0.300,2193.000,0.500,2556.000,1.000,1017.000,5.000,0
"03/11/08","15:06:18",22980.000,"cc",28312.055,6.00,6,0.100,14431.000,0.200,2731.000,0.300,2160.000,0.500,2646.000,1.000,1012.000,5.000,0
"03/11/08","15:06:24",23238.000,"cc",28299.815,6.00,6,0.100,14646.000,0.200,2733.000,0.300,2294.000,0.500,2557.000,1.000,1008.000,5.000,0
"03/11/08","15:06:30",23582.000,"cc",28325.391,6.00,6,0.100,14700.000,0.200,2848.000,0.300,2273.000,0.500,2744.000,1.000,1017.000,5.000,0
"03/11/08","15:06:36",23333.000,"cc",28369.518,6.00,6,0.100,14752.000,0.200,2701.000,0.300,2286.000,0.500,2603.000,1.000,991.000,5.000,0
"03/11/08","15:06:42",23407.000,"cc",28336.490,6.00,6,0.100,14832.000,0.200,2801.000,0.300,2172.000,0.500,2615.000,1.000,987.000,5.000,0
"03/11/08","15:06:48",23372.000,"cc",28269.693,6.00,6,0.100,14771.000,0.200,2727.000,0.300,2233.000,0.500,2647.000,1.000,994.000,5.000,0
"03/11/08","15:06:54",23639.000,"cc",28333.834,6.00,6,0.100,14947.000,0.200,2804.000,0.300,2244.000,0.500,2695.000,1.000,949.000,5.000,0
"03/11/08","15:07:00",23328.000,"cc",28255.115,6.00,6,0.100,14726.000,0.200,2772.000,0.300,2205.000,0.500,2633.000,1.000,992.000,5.000,0
"03/11/08","15:07:06",23253.000,"cc",28331.744,6.00,6,0.100,14701.000,0.200,2737.000,0.300,2247.000,0.500,2605.000,1.000,963.000,5.000,0
"03/11/08","15:07:12",23724.000,"cc",28356.039,6.00,6,0.100,14762.000,0.200,2887.000,0.300,2274.000,0.500,2790.000,1.000,1011.000,5.000,0
"03/11/08","15:07:18",23503.000,"cc",28381.422,6.00,6,0.100,14849.000,0.200,2767.000,0.300,2154.000,0.500,2699.000,1.000,1034.000,5.000,0
"03/11/08","15:07:24",23076.000,"cc",28233.705,6.00,6,0.100,14743.000,0.200,2733.000,0.300,2097.000,0.500,2548.000,1.000,955.000,5.000,0
"03/11/08","15:07:30",23234.000,"cc",28278.242,6.00,6,0.100,14818.000,0.200,2726.000,0.300,2208.000,0.500,2580.000,1.000,902.000,5.000,0
"03/11/08","15:07:36",23479.000,"cc",28405.150,6.00,6,0.100,14908.000,0.200,2791.000,0.300,2233.000,0.500,2638.000,1.000,909.000,5.000,0
"03/11/08","15:07:42",23422.000,"cc",28340.076,6.00,6,0.100,14965.000,0.200,2779.000,0.300,2162.000,0.500,2578.000,1.000,938.000,5.000,0
"03/11/08","15:07:48",23543.000,"cc",28327.520,6.00,6,0.100,14955.000,0.200,2743.000,0.300,2249.000,0.500,2601.000,1.000,995.000,5.000,0
"03/11/08","15:07:54",23091.000,"cc",28328.574,6.00,6,0.100,14579.000,0.200,2757.000,0.300,2176.000,0.500,2587.000,1.000,992.000,5.000,0
"03/11/08","15:08:00",23167.000,"cc",28258.379,6.00,6,0.100,14634.000,0.200,2735.000,0.300,2184.000,0.500,2655.000,1.000,959.000,5.000,0
"03/11/08","15:08:06",23323.000,"cc",28328.766,6.00,6,0.100,14702.000,0.200,2772.000,0.300,2217.000,0.500,2602.000,1.000,1030.000,5.000,0
"03/11/08","15:08:12",23636.000,"cc",28290.166,6.00,6,0.100,14860.000,0.200,2894.000,0.300,2220.000,0.500,2714.000,1.000,948.000,5.000,0
"03/11/08","15:08:18",23684.000,"cc",28285.848,6.00,6,0.100,14874.000,0.200,2899.000,0.300,2246.000,0.500,2631.000,1.000,1034.000,5.000,0
"03/11/08","15:08:24",23749.000,"cc",28418.686,6.00,6,0.100,15005.000,0.200,2810.000,0.300,2223.000,0.500,2662.000,1.000,1049.000,5.000,0
"03/11/08","15:08:30",23779.000,"cc",28206.326,6.00,6,0.100,14959.000,0.200,2897.000,0.300,2251.000,0.500,2754.000,1.000,918.000,5.000,0
"03/11/08","15:08:36",23628.000,"cc",28331.293,6.00,6,0.100,14888.000,0.200,2880.000,0.300,2193.000,0.500,2633.000,1.000,1034.000,5.000,0
"03/11/08","15:08:42",23068.000,"cc",28300.336,6.00,6,0.100,14743.000,0.200,2695.000,0.300,2124.000,0.500,2545.000,1.000,961.000,5.000,0
"03/11/08","15:08:48",23597.000,"cc",28343.365,6.00,6,0.100,14817.000,0.200,2821.000,0.300,2291.000,0.500,2662.000,1.000,1006.000,5.000,0
"03/11/08","15:08:54",23489.000,"cc",28257.371,6.00,6,0.100,14762.000,0.200,2862.000,0.300,2209.000,0.500,2642.000,1.000,1014.000,5.000,0
"03/11/08","15:09:00",23592.000,"cc",28372.820,6.00,6,0.100,14905.000,0.200,2865.000,0.300,2234.000,0.500,2618.000,1.000,970.000,5.000,0
"03/11/08","15:09:06",23412.000,"cc",28282.031,6.00,6,0.100,14972.000,0.200,2840.000,0.300,2084.000,0.500,2563.000,1.000,953.000,5.000,0
"03/11/08","15:09:12",23055.000,"cc",28348.799,6.00,6,0.100,14741.000,0.200,2680.000,0.300,2122.000,0.500,2605.000,1.000,907.000,5.000,0
"03/11/08","15:09:18",23448.000,"cc",28303.209,6.00,6,0.100,14870.000,0.200,2834.000,0.300,2227.000,0.500,2569.000,1.000,948.000,5.000,0
"03/11/08","15:09:24",23714.000,"cc",28292.344,6.00,6,0.100,14956.000,0.200,2950.000,0.300,2156.000,0.500,2710.000,1.000,942.000,5.000,0
"03/11/08","15:09:30",23774.000,"cc",28231.490,6.00,6,0.100,15037.000,0.200,2777.000,0.300,2277.000,0.500,2690.000,1.000,993.000,5.000,0
"03/11/08","15:09:36",23609.000,"cc",28280.770,6.00,6,0.100,14973.000,0.200,2921.000,0.300,2172.000,0.500,2636.000,1.000,907.000,5.000,0
"03/11/08","15:09:42",23696.000,"cc",28377.094,6.00,6,0.100,15054.000,0.200,2828.000,0.300,2190.000,0.500,2649.000,1.000,975.000,5.000,0
"03/11/08","15:09:48",24187.000,"cc",28336.590,6.00,6,0.100,15305.000,0.200,2842.000,0.300,2227.000,0.500,2812.000,1.000,1001.000,5.000,0
"03/11/08","15:09:54",23838.000,"cc",28308.883,6.00,6,0.100,15202.000,0.200,2918.000,0.300,2200.000,0.500,2569.000,1.000,949.000,5.000,0
"03/11/08","15:10:00",23928.000,"cc",28274.518,6.00,6,0.100,15028.000,0.200,2944.000,0.300,2274.000,0.500,2658.000,1.000,1024.000,5.000,0
"03/11/08","15:10:06",23900.000,"cc",28299.150,6.00,6,0.100,15068.000,0.200,2914.000,0.300,2315.000,0.500,2625.000,1.000,978.000,5.000,0
"03/11/08","15:10:12",24000.000,"cc",28327.660,6.00,6,0.100,15203.000,0.200,2899.000,0.300,2267.000,0.500,2635.000,1.000,996.000,5.000,0
"03/11/08","15:10:18",23744.000,"cc",28262.441,6.00,6,0.100,15015.000,0.200,2885.000,0.300,2273.000,0.500,2619.000,1.000,952.000,5.000,0
"03/11/08","15:10:24",23892.000,"cc",28340.846,6.00,6,0.100,15054.000,0.200,2933.000,0.300,2244.000,0.500,2724.000,1.000,937.000,5.000,0
"03/11/08","15:10:30",24311.000,"cc",28318.584,6.00,6,0.100,15304.000,0.200,2986.000,0.300,2258.000,0.500,2734.000,1.000,1029.000,5.000,0
"03/11/08","15:10:36",23995.000,"cc",28333.725,6.00,6,0.100,15133.000,0.200,2919.000,0.300,2285.000,0.500,2680.000,1.000,978.000,5.000,0
"03/11/08","15:10:42",23784.000,"cc",28323.148,6.00,6,0.100,15111.000,0.200,2904.000,0.300,2205.000,0.500,2602.000,1.000,962.000,5.000,0
"03/11/08","15:10:48",24169.000,"cc",28287.350,6.00,6,0.100,15265.000,0.200,2948.000,0.300,2326.000,0.500,2672.000,1.000,958.000,5.000,0
"03/11/08","15:10:54",24171.000,"cc",28295.777,6.00,6,0.100,15205.000,0.200,3037.000,0.300,2237.000,0.500,2719.000,1.000,973.000,5.000,0
"03/11/08","15:11:00",23971.000,"cc",28322.525,6.00,6,0.100,15090.000,0.200,2985.000,0.300,2226.000,0.500,2696.000,1.000,974.000,5.000,0
"03/11/08","15:11:06",23784.000,"cc",28297.037,6.00,6,0.100,15127.000,0.200,3024.000,0.300,2188.000,0.500,2513.000,1.000,932.000,5.000,0
"03/11/08","15:11:12",24157.000,"cc",28363.199,6.00,6,0.100,15362.000,0.200,2961.000,0.300,2283.000,0.500,2619.000,1.000,932.000,5.000,0
"03/11/08","15:11:18",23800.000,"cc",28355.252,6.00,6,0.100,15147.000,0.200,2932.000,0.300,2135.000,0.500,2636.000,1.000,950.000,5.000,0
"03/11/08","15:11:24",24188.000,"cc",28334.818,6.00,6,0.100,15297.000,0.200,3095.000,0.300,2236.000,0.500,2645.000,1.000,915.000,5.000,0
"03/11/08","15:11:30",24246.000,"cc",28305.338,6.00,6,0.100,15403.000,0.200,2943.000,0.300,2274.000,0.500,2655.000,1.000,971.000,5.000,0
"03/11/08","15:11:36",23902.000,"cc",28269.090,6.00,6,0.100,15142.000,0.200,3003.000,0.300,2153.000,0.500,2675.000,1.000,929.000,5.000,0
"03/11/08","15:11:42",23813.000,"cc",28268.779,6.00,6,0.100,15004.000,0.200,3047.000,0.300,2296.000,0.500,2537.000,1.000,929.000,5.000,0
"03/11/08","15:11:48",23983.000,"cc",28258.809,6.00,6,0.100,15276.000,0.200,2958.000,0.300,2173.000,0.500,2617.000,1.000,959.000,5.000,0
"03/11/08","15:11:54",23950.000,"cc",28374.627,6.00,6,0.100,15119.000,0.200,3001.000,0.300,2273.000,0.500,2531.000,1.000,1026.000,5.000,0
"03/11/08","15:12:00",24055.000,"cc",28360.846,6.00,6,0.100,15178.000,0.200,2996.000,0.300,2232.000,0.500,2685.000,1.000,964.000,5.000,0
"03/11/08","15:12:06",23887.000,"cc",28355.824,6.00,6,0.100,15080.000,0.200,3011.000,0.300,2247.000,0.500,2579.000,1.000,970.000,5.000,0
"03/11/08","15:12:12",24152.000,"cc",28292.445,6.00,6,0.100,15292.000,0.200,2939.000,0.300,2278.000,0.500,2720.000,1.000,923.000,5.000,0
"03/11/08","15:12:18",23897.000,"cc",28249.102,6.00,6,0.100,15126.000,0.200,2902.000,0.300,2199.000,0.500,2740.000,1.000,930.000,5.000,0
"03/11/08","15:12:24",23716.000,"cc",28374.967,6.00,6,0.100,15051.000,0.200,2960.000,0.300,2194.000,0.500,2596.000,1.000,915.000,5.000,0
"03/11/08","15:12:30",24506.000,"cc",28298.893,6.00,6,0.100,15558.000,0.200,3070.000,0.300,2283.000,0.500,2665.000,1.000,930.000,5.000,0
"03/11/08","15:12:36",23709.000,"cc",28355.379,6.00,6,0.100,14996.000,0.200,2873.000,0.300,2243.000,0.500,2581.000,1.000,1016.000,5.000,0
"03/11/08","15:12:42",24063.000,"cc",28308.619,6.00,6,0.100,15225.000,0.200,3011.000,0.300,2150.000,0.500,2694.000,1.000,983.000,5.000,0
"03/11/08","15:12:48",23942.000,"cc",28251.422,6.00,6,0.100,15216.000,0.200,2974.000,0.300,2223.000,0.500,2590.000,1.000,939.000,5.000,0
"03/11/08","15:12:54",24238.000,"cc",28214.313,6.00,6,0.100,15377.000,0.200,3144.000,0.300,2220.000,0.500,2517.000,1.000,980.000,5.000,0
"03/11/08","15:13:00",24332.000,"cc",28386.850,6.00,6,0.100,15402.000,0.200,3020.000,0.300,2305.000,0.500,2654.000,1.000,951.000,5.000,0
"03/11/08","15:13:06",24118.000,"cc",28384.273,6.00,6,0.100,15263.000,0.200,3037.000,0.300,2264.000,0.500,2579.000,1.000,975.000,5.000,0
"03/11/08","15:13:12",23989.000,"cc",28234.629,6.00,6,0.100,15112.000,0.200,3019.000,0.300,2226.000,0.500,2686.000,1.000,946.000,5.000,0
"03/11/08","15:13:18",24065.000,"cc",28232.633,6.00,6,0.100,15284.000,0.200,3030.000,0.300,2220.000,0.500,2593.000,1.000,938.000,5.000,0
"03/11/08","15:13:24",24046.000,"cc",28346.850,6.00,6,0.100,15270.000,0.200,3010.000,0.300,2213.000,0.500,2633.000,1.000,920.000,5.000,0
"03/11/08","15:13:30",24362.000,"cc",28331.647,6.00,6,0.100,15408.000,0.200,3010.000,0.300,2337.000,0.500,2696.000,1.000,911.000,5.000,0
"03/11/08","15:13:36",24277.000,"cc",28343.164,6.00,6,0.100,15392.000,0.200,2979.000,0.300,2181.000,0.500,2743.000,1.000,982.000,5.000,0
"03/11/08","15:13:42",23680.000,"cc",28346.410,6.00,6,0.100,15008.000,0.200,2905.000,0.300,2203.000,0.500,2596.000,1.000,968.000,5.000,0
"03/11/08","15:13:48",24330.000,"cc",28323.016,6.00,6,0.100,15473.000,0.200,3035.000,0.300,2259.000,0.500,2663.000,1.000,900.000,5.000,0
"03/11/08","15:13:54",24154.000,"cc",28337.201,6.00,6,0.100,15439.000,0.200,3075.000,0.300,2063.000,0.500,2657.000,1.000,920.000,5.000,0
"03/11/08","15:14:00",23791.000,"cc",28356.879,6.00,6,0.100,15158.000,0.200,2957.000,0.300,2192.000,0.500,2551.000,1.000,933.000,5.000,0
"03/11/08","15:14:06",24015.000,"cc",28295.904,6.00,6,0.100,15124.000,0.200,3006.000,0.300,2210.000,0.500,2665.000,1.000,1010.000,5.000,0
"03/11/08","15:14:12",24232.000,"cc",28217.357,6.00,6,0.100,15358.000,0.200,2970.000,0.300,2246.000,0.500,2709.000,1.000,949.000,5.000,0
"03/11/08","15:14:18",24367.000,"cc",28299.551,6.00,6,0.100,15485.000,0.200,3039.000,0.300,2213.000,0.500,2701.000,1.000,929.000,5.000,0
"03/11/08","15:14:24",24544.000,"cc",28365.731,6.00,6,0.100,15595.000,0.200,3043.000,0.300,2292.000,0.500,2693.000,1.000,921.000,5.000,0
"03/11/08","15:14:30",24497.000,"cc",28262.496,6.00,6,0.100,15498.000,0.200,3050.000,0.300,2260.000,0.500,2769.000,1.000,920.000,5.000,0
"03/11/08","15:14:36",24393.000,"cc",28359.148,6.00,6,0.100,15367.000,0.200,3075.000,0.300,2267.000,0.500,2683.000,1.000,1001.000,5.000,0
"03/11/08","15:14:42",24233.000,"cc",28259.647,6.00,6,0.100,15407.000,0.200,2961.000,0.300,2252.000,0.500,2639.000,1.000,974.000,5.000,0
"03/11/08","15:14:48",24222.000,"cc",28228.627,6.00,6,0.100,15521.000,0.200,3005.000,0.300,2145.000,0.500,2621.000,1.000,930.000,5.000,0
"03/11/08","15:14:54",24629.000,"cc",28283.506,6.00,6,0.100,15706.000,0.200,3038.000,0.300,2221.000,0.500,2708.000,1.000,956.000,5.000,0
"03/11/08","15:15:00",24453.000,"cc",28404.051,6.00,6,0.100,15442.000,0.200,3055.000,0.300,2290.000,0.500,2741.000,1.000,925.000,5.000,0
"03/11/08","15:15:06",24241.000,"cc",28428.951,6.00,6,0.100,15439.000,0.200,3053.000,0.300,2174.000,0.500,2652.000,1.000,923.000,5.000,0
"03/11/08","15:15:12",24517.000,"cc",28277.988,6.00,6,0.100,15502.000,0.200,3040.000,0.300,2285.000,0.500,2736.000,1.000,954.000,5.000,0
"03/11/08","15:15:18",24454.000,"cc",28340.648,6.00,6,0.100,15515.000,0.200,3072.000,0.300,2320.000,0.500,2597.000,1.000,950.000,5.000,0
"03/11/08","15:15:24",24766.000,"cc",28332.606,6.00,6,0.100,15816.000,0.200,3147.000,0.300,2274.000,0.500,2601.000,1.000,928.000,5.000,0
"03/11/08","15:15:30",24337.000,"cc",28251.391,6.00,6,0.100,15453.000,0.200,3015.000,0.300,2285.000,0.500,2634.000,1.000,950.000,5.000,0
"03/11/08","15:15:36",24402.000,"cc",28300.514,6.00,6,0.100,15430.000,0.200,3020.000,0.300,2265.000,0.500,2737.000,1.000,950.000,5.000,0
"03/11/08","15:15:42",24618.000,"cc",28337.994,6.00,6,0.100,15506.000,0.200,3134.000,0.300,2244.000,0.500,2751.000,1.000,983.000,5.000,0
"03/11/08","15:15:48",24415.000,"cc",28330.180,6.00,6,0.100,15354.000,0.200,3095.000,0.300,2319.000,0.500,2693.000,1.000,954.000,5.000,0
"03/11/08","15:15:54",24434.000,"cc",28271.412,6.00,6,0.100,15601.000,0.200,3023.000,0.300,2234.000,0.500,2590.000,1.000,986.000,5.000,0
"03/11/08","15:16:00",24342.000,"cc",28325.996,6.00,6,0.100,15412.000,0.200,3026.000,0.300,2270.000,0.500,2691.000,1.000,943.000,5.000,0
"03/11/08","15:16:06",24624.000,"cc",28323.307,6.00,6,0.100,15544.000,0.200,3156.000,0.300,2248.000,0.500,2705.000,1.000,971.000,5.000,0
"03/11/08","15:16:12",24552.000,"cc",28331.227,6.00,6,0.100,15422.000,0.200,3077.000,0.300,2308.000,0.500,2756.000,1.000,989.000,5.000,0
"03/11/08","15:16:18",24729.000,"cc",28295.928,6.00,6,0.100,15563.000,0.200,3188.000,0.300,2363.000,0.500,2686.000,1.000,929.000,5.000,0